When you browse on this site, cookies collect data to enhance your experience and personalize the content and advertising you see.
Visit our Privacy Policy to learn more. By continuing to use the site, you agree to this use of cookies and data.
  • In Czech Republic
  • List of Countries
  • For 7 days
  • Water Temperature
  • Weather Map
  • Weather Widgets
  • user-avatar
    Login

    Hourly Weather Canillo

    Today, 7 December, Saturday

    Time Temperature Precipitation Wind Pressure Humidity
    00:00 +1°C° 0 mm 1 mps 619 mmHg 83%
    01:00 +1°C° 0 mm 1 mps 618 mmHg 82%
    02:00 +1°C° 0 mm 1 mps 618 mmHg 82%
    03:00 +1°C° 0 mm 1 mps 618 mmHg 82%
    04:00 +1°C° 0 mm 1 mps 618 mmHg 79%
    05:00 +1°C° 0 mm 1 mps 618 mmHg 76%
    06:00 +1°C° 0 mm 1 mps 618 mmHg 74%
    07:00 +2°C° 0 mm 1 mps 619 mmHg 72%
    08:00 +3°C° 0 mm 1 mps 620 mmHg 71%
    09:00 +4°C° 0 mm 1 mps 620 mmHg 70%
    10:00 +6°C° 0 mm 1 mps 621 mmHg 67%
    11:00 +7°C° 0 mm 1 mps 621 mmHg 64%
    12:00 +8°C° 0 mm 1 mps 622 mmHg 62%
    13:00 +8°C° 0 mm 1 mps 621 mmHg 67%
    14:00 +7°C° 0 mm 1 mps 620 mmHg 72%
    15:00 +5°C° 0 mm 0 mps 620 mmHg 77%
    16:00 +5°C° 0 mm 1 mps 620 mmHg 82%
    17:00 +3°C° 0 mm 1 mps 619 mmHg 86%
    18:00 +2°C° 0 mm 1 mps 619 mmHg 90%
    19:00 +2°C° 0 mm 1 mps 619 mmHg 90%
    20:00 +2°C° 0 mm 1 mps 619 mmHg 89%
    21:00 +2°C° 0 mm 1 mps 619 mmHg 88%
    22:00 +1°C° 0 mm 1 mps 619 mmHg 85%
    23:00 +1°C° 0 mm 1 mps 619 mmHg 82%

    Tomorrow, 8 December, Sunday

    Time Temperature Precipitation Wind Pressure Humidity
    00:00 +1°C° 0 mm 1 mps 619 mmHg 78%
    01:00 +1°C° 0 mm 1 mps 619 mmHg 76%
    02:00 +1°C° 0 mm 1 mps 619 mmHg 73%
    03:00 +1°C° 0 mm 1 mps 618 mmHg 70%
    04:00 +1°C° 0 mm 1 mps 618 mmHg 69%
    05:00 +1°C° 0 mm 1 mps 618 mmHg 68%
    06:00 +1°C° 0 mm 1 mps 618 mmHg 66%
    07:00 +2°C° 0 mm 1 mps 619 mmHg 65%
    08:00 +4°C° 0 mm 1 mps 620 mmHg 63%
    09:00 +4°C° 0 mm 0 mps 620 mmHg 62%
    10:00 +6°C° 0 mm 1 mps 620 mmHg 61%
    11:00 +7°C° 0 mm 1 mps 620 mmHg 60%
    12:00 +8°C° 0 mm 1 mps 621 mmHg 59%
    13:00 +8°C° 0 mm 1 mps 620 mmHg 65%
    14:00 +7°C° 0 mm 1 mps 619 mmHg 72%
    15:00 +7°C° 0 mm 1 mps 619 mmHg 78%
    16:00 +6°C° 0.1 mm 1 mps 619 mmHg 81%
    17:00 +5°C° 0.1 mm 1 mps 618 mmHg 84%
    18:00 +4°C° 0.1 mm 1 mps 618 mmHg 86%
    19:00 +4°C° 0.6 mm 1 mps 619 mmHg 88%
    20:00 +5°C° 0.6 mm 1 mps 619 mmHg 91%
    21:00 +5°C° 0.6 mm 1 mps 619 mmHg 93%
    22:00 +4°C° 0.2 mm 1 mps 619 mmHg 93%
    23:00 +3°C° 0.2 mm 2 mps 619 mmHg 94%

    Day after tomorrow, 9 December, Monday

    Time Temperature Precipitation Wind Pressure Humidity
    00:00 +3°C° 0.2 mm 2 mps 619 mmHg 95%
    01:00 +2°C° 0 mm 2 mps 618 mmHg 88%
    02:00 +1°C° 0 mm 2 mps 618 mmHg 81%
    03:00 -1°C° 0 mm 2 mps 617 mmHg 75%
    04:00 -2°C° 0 mm 2 mps 617 mmHg 77%
    05:00 -2°C° 0 mm 2 mps 617 mmHg 79%
    06:00 -2°C° 0 mm 3 mps 617 mmHg 81%
    07:00 -2°C° 0.3 mm 3 mps 618 mmHg 82%
    08:00 -1°C° 0.3 mm 3 mps 618 mmHg 82%
    09:00 -1°C° 0.3 mm 3 mps 618 mmHg 83%
    10:00 -1°C° 0.5 mm 4 mps 619 mmHg 80%
    11:00 -1°C° 0.5 mm 4 mps 619 mmHg 77%
    12:00 -1°C° 0.5 mm 4 mps 619 mmHg 74%
    13:00 -1°C° 0.5 mm 4 mps 619 mmHg 77%
    14:00 -1°C° 0.5 mm 4 mps 619 mmHg 80%
    15:00 -2°C° 0.5 mm 4 mps 619 mmHg 83%
    16:00 -3°C° 0.3 mm 4 mps 619 mmHg 86%
    17:00 -3°C° 0.3 mm 4 mps 619 mmHg 88%
    18:00 -4°C° 0.3 mm 4 mps 619 mmHg 90%
    19:00 -4°C° 0.1 mm 4 mps 619 mmHg 89%
    20:00 -4°C° 0.1 mm 4 mps 620 mmHg 87%
    21:00 -4°C° 0.1 mm 4 mps 620 mmHg 86%
    22:00 -4°C° 0 mm 4 mps 620 mmHg 85%
    23:00 -4°C° 0 mm 4 mps 620 mmHg 85%

    10 December, Tuesday

    Time Temperature Precipitation Wind Pressure Humidity
    00:00 -5°C° 0 mm 4 mps 620 mmHg 84%
    01:00 -5°C° 0 mm 4 mps 620 mmHg 84%
    02:00 -5°C° 0 mm 3 mps 619 mmHg 84%
    03:00 -5°C° 0 mm 3 mps 619 mmHg 84%
    04:00 -5°C° 0 mm 3 mps 619 mmHg 82%
    05:00 -5°C° 0 mm 3 mps 619 mmHg 80%
    06:00 -4°C° 0 mm 2 mps 619 mmHg 78%
    07:00 -3°C° 0 mm 2 mps 620 mmHg 74%
    08:00 -2°C° 0 mm 2 mps 621 mmHg 70%
    09:00 +1°C° 0 mm 2 mps 622 mmHg 66%
    10:00 +2°C° 0 mm 2 mps 622 mmHg 63%
    11:00 +5°C° 0 mm 1 mps 622 mmHg 59%
    12:00 +6°C° 0 mm 1 mps 622 mmHg 56%
    13:00 +6°C° 0 mm 1 mps 621 mmHg 59%
    14:00 +5°C° 0 mm 1 mps 621 mmHg 63%
    15:00 +5°C° 0 mm 1 mps 620 mmHg 66%
    16:00 +4°C° 0 mm 1 mps 620 mmHg 61%
    17:00 +3°C° 0 mm 1 mps 619 mmHg 55%
    18:00 +1°C° 0 mm 1 mps 619 mmHg 50%
    19:00 +1°C° 0 mm 2 mps 619 mmHg 48%
    20:00 +1°C° 0 mm 2 mps 619 mmHg 46%
    21:00 +1°C° 0 mm 2 mps 619 mmHg 44%
    22:00 +1°C° 0 mm 2 mps 618 mmHg 47%
    23:00 +1°C° 0 mm 2 mps 618 mmHg 51%

    11 December, Wednesday

    Time Temperature Precipitation Wind Pressure Humidity
    00:00 +1°C° 0 mm 2 mps 618 mmHg 55%
    01:00 +1°C° 0 mm 2 mps 618 mmHg 62%
    02:00 +1°C° 0 mm 2 mps 617 mmHg 69%
    03:00 +2°C° 0 mm 1 mps 617 mmHg 76%
    04:00 +2°C° 0 mm 1 mps 617 mmHg 76%
    05:00 +2°C° 0 mm 1 mps 617 mmHg 76%
    06:00 -1°C° 0 mm 2 mps 617 mmHg 76%
    07:00 +2°C° 0 mm 1 mps 617 mmHg 73%
    08:00 +2°C° 0 mm 1 mps 618 mmHg 70%
    09:00 +3°C° 0 mm 1 mps 618 mmHg 68%
    10:00 +3°C° 0.4 mm 1 mps 618 mmHg 72%
    11:00 +2°C° 0.4 mm 2 mps 618 mmHg 77%
    12:00 +2°C° 0.4 mm 2 mps 618 mmHg 82%
    13:00 +1°C° 0.9 mm 2 mps 618 mmHg 85%
    14:00 -1°C° 0.9 mm 2 mps 617 mmHg 87%
    15:00 -2°C° 0.9 mm 3 mps 617 mmHg 90%
    16:00 -4°C° 0.1 mm 3 mps 617 mmHg 91%
    17:00 -5°C° 0.1 mm 3 mps 617 mmHg 91%
    18:00 -5°C° 0.1 mm 2 mps 616 mmHg 91%
    19:00 -5°C° 0.1 mm 2 mps 616 mmHg 91%
    20:00 -5°C° 0.1 mm 2 mps 617 mmHg 91%
    21:00 -5°C° 0.1 mm 2 mps 617 mmHg 90%
    22:00 -5°C° 0 mm 2 mps 617 mmHg 88%
    23:00 -6°C° 0 mm 2 mps 616 mmHg 86%

    12 December, Thursday

    Time Temperature Precipitation Wind Pressure Humidity
    00:00 -6°C° 0 mm 2 mps 616 mmHg 84%
    01:00 -5°C° 0.2 mm 2 mps 616 mmHg 86%
    02:00 -5°C° 0.2 mm 2 mps 616 mmHg 88%
    03:00 -5°C° 0.2 mm 2 mps 616 mmHg 90%
    04:00 -4°C° 0.3 mm 2 mps 616 mmHg 91%
    05:00 -2°C° 0.3 mm 1 mps 616 mmHg 91%
    06:00 -2°C° 0.3 mm 1 mps 616 mmHg 92%
    07:00 -1°C° 0.2 mm 1 mps 617 mmHg 90%
    08:00 -1°C° 0.2 mm 1 mps 617 mmHg 87%
    09:00 0°C° 0.2 mm 1 mps 617 mmHg 85%
    10:00 +1°C° 0 mm 1 mps 617 mmHg 81%
    11:00 +2°C° 0 mm 1 mps 617 mmHg 78%
    12:00 +3°C° 0 mm 1 mps 617 mmHg 74%
    13:00 +2°C° 0 mm 1 mps 616 mmHg 77%
    14:00 +2°C° 0 mm 1 mps 616 mmHg 80%
    15:00 +2°C° 0 mm 1 mps 615 mmHg 83%
    16:00 +1°C° 0 mm 1 mps 615 mmHg 87%
    17:00 0°C° 0 mm 1 mps 614 mmHg 90%
    18:00 -1°C° 0 mm 1 mps 613 mmHg 94%
    19:00 -1°C° 0 mm 1 mps 613 mmHg 92%
    20:00 -2°C° 0 mm 1 mps 612 mmHg 91%
    21:00 -2°C° 0 mm 1 mps 612 mmHg 90%
    22:00 -1°C° 0.6 mm 1 mps 612 mmHg 90%
    23:00 0°C° 0.6 mm 1 mps 611 mmHg 91%
    Show more